#timestamp,LO_Frequency,Hit,StdDev 
1587175215.7,286046999.7,N
1587175235.6,286047002.0,N
1587175255.4,286047003.7,N
1587175275.2,286047003.9,N
1587175295.1,286047001.7,N
1587175296.0,286047001.7,N
1587175315.8,286047004.4,N
1587175335.7,286047005.9,Y
1587175355.5,286047004.0,P
1587175375.3,286047004.0,P
1587175395.2,286047001.9,N
1587175415.0,286047001.4,N
1587175415.9,286047001.4,N
1587175435.8,286047003.2,N
1587175455.6,286047005.7,Y
1587175475.4,286047002.1,P
1587175495.3,286047002.8,P
1587175515.1,286047001.9,P
1587175535.9,286047003.9,Y
1587175555.7,286046998.6,P
1587175575.5,286047000.4,N
1587175595.4,286047001.2,N
1587175615.2,286047000.3,N
1587175635.1,286046999.9,N
1587175636.0,286046999.9,N
1587175655.8,286046998.2,N
1587175675.6,286046999.6,N
1587175695.5,286046996.5,Y
1587175715.3,286047001.2,P
1587175735.1,286046998.8,N
1587175755.9,286047002.8,N
1587175775.7,286046998.5,N
1587175795.6,286046998.4,N
1587175815.4,286046999.1,N
1587175835.2,286046997.6,N
1587175855.1,286046997.0,N
1587175856.0,286046997.0,N
1587175875.8,286046996.3,N
1587175895.7,286046995.1,N
1587175915.5,286046997.6,N
1587175935.3,286046998.0,N
1587175955.2,286046997.1,N
1587175975.0,286046997.4,N
1587175975.9,286046997.4,N
1587175995.8,286046995.4,N
1587176015.6,286046995.5,N
1587176035.4,286046997.2,N
1587176055.3,286046997.3,N
1587176075.1,286046994.1,Y
1587176095.9,286046996.7,P
1587176115.7,286046998.1,P
1587176135.5,286047000.1,N
1587176155.4,286047002.0,N
1587176175.2,286047002.0,N
1587176195.0,286047003.7,N
1587176195.9,286047003.7,N
1587176215.8,286047004.2,N
1587176235.6,286047002.0,N
1587176255.5,286047002.3,N
1587176275.3,286046998.1,N
1587176295.1,286047002.5,N
1587176315.9,286047003.2,N
1587176335.7,286047004.0,N
1587176355.5,286047003.4,N
1587176375.4,286047001.4,N
1587176395.2,286047000.9,N
1587176415.1,286047003.9,N
1587176416.0,286047003.9,N
1587176435.8,286047002.4,N
1587176455.6,286047004.0,N
1587176475.5,286047001.3,N
1587176495.3,286047002.1,N
1587176515.2,286047002.7,N
1587176535.9,286047000.0,N
1587176555.7,286046999.7,N
1587176575.6,286047003.5,N
1587176595.4,286047001.7,N
1587176615.3,286047000.4,N
1587176635.1,286047002.2,N
1587176636.0,286047002.2,N
1587176655.8,286047001.9,N
1587176675.7,286047002.6,N
1587176695.5,286046999.7,N
1587176715.4,286047002.5,N
1587176735.2,286047000.0,N
1587176755.0,286047000.1,N
1587176755.9,286047000.1,N
1587176775.8,286047002.0,N
1587176795.6,286046998.9,N
1587176815.4,286046998.5,N
1587176835.3,286047002.6,N
1587176855.1,286047000.9,N
1587176875.9,286047002.2,N
1587176895.7,286047002.1,N
1587176915.5,286046999.8,N
1587176935.4,286047000.5,N
1587176955.2,286046998.1,N
1587176975.1,286046999.0,N
1587176976.0,286046999.0,N
1587176995.8,286046996.5,N
1587177015.6,286046995.4,N
1587177035.5,286046998.9,N
1587177055.3,286047000.9,N
1587177075.1,286047002.8,N
1587177095.9,286047003.5,N
1587177115.7,286047003.9,N
1587177135.6,286047003.6,N
1587177155.4,286047004.0,N
1587177175.2,286047003.3,N
1587177195.1,286047003.0,N
1587177196.0,286047003.0,N
1587177215.8,286046999.9,N
1587177235.7,286046999.9,N
1587177255.5,286047002.0,N
1587177275.3,286047004.1,N
1587177295.2,286047003.5,N
1587177315.0,286047004.2,N
1587177315.9,286047004.2,N
1587177335.7,286046998.1,N
1587177355.6,286046999.6,N
1587177375.4,286046998.8,N
1587177395.3,286047001.2,N
1587177415.1,286046999.4,N
1587177416.0,286046999.4,N
1587177435.8,286046998.6,N
1587177455.7,286047000.9,N
1587177475.5,286047002.2,N
1587177495.4,286047000.5,N
1587177515.2,286047001.0,N
1587177535.0,286047002.3,N
1587177535.9,286047002.3,N
1587177555.8,286047002.7,N
1587177575.6,286047000.0,N
1587177595.4,286047004.3,N
1587177615.3,286047000.5,N
1587177635.1,286046998.8,N
1587177655.9,286046997.0,N
1587177675.7,286046996.6,N
1587177695.5,286047000.5,N
1587177715.4,286046999.9,N
1587177735.2,286046999.4,N
1587177785.1,286046995.1,E
1587177795.9,286046998.6,N
1587177815.7,286047003.4,P
1587177835.6,286047003.7,N
1587177855.4,286047002.0,N
1587177875.3,286047004.1,N
1587177895.1,286047004.7,N
1587177915.8,286047008.7,Y
1587177935.7,286047004.3,P
1587177955.5,286047004.6,P
1587177975.4,286047005.4,P
1587177995.2,286047004.9,Y
1587178015.0,286047000.5,P
1587178015.9,286047000.5,N
1587178035.8,286047000.7,N
1587178055.6,286046998.8,N
1587178075.5,286046998.1,N
1587178095.3,286047000.0,N
1587178115.1,286047004.3,N
1587178135.9,286047003.3,N
1587178155.7,286047003.5,N
1587178175.5,286046999.7,N
1587178195.4,286047003.9,N
1587178215.2,286047004.7,N
1587178235.1,286047005.9,N
1587178236.0,286047005.9,N
1587178255.8,286047002.9,N
1587178275.6,286047004.2,N
1587178295.5,286047003.3,N
1587178315.3,286047005.9,N
1587178335.2,286047005.5,N
1587178355.9,286047005.0,N
1587178375.7,286047005.6,N
1587178395.6,286046999.8,N
1587178415.4,286046998.8,N
1587178435.2,286047000.6,N
1587178455.1,286047002.5,N
1587178456.0,286047002.5,N
1587178475.8,286047003.4,N
1587178495.7,286047005.8,N
1587178515.5,286046998.8,N
1587178535.3,286046998.4,N
1587178555.2,286047000.8,N
1587178575.0,286046996.9,N
1587178575.9,286046996.9,N
1587178595.8,286046999.6,N
1587178615.6,286046998.8,N
1587178635.4,286046999.9,N
1587178655.3,286047000.9,N
1587178705.1,286047000.4,E
1587178715.1,286046999.7,N
1587178716.0,286046999.7,P
1587178735.8,286047002.2,P
1587178755.6,286047002.6,N
1587178775.5,286047003.0,N
1587178795.3,286047002.5,N
